TimeCST,TemperatureF,Dew PointF,Humidity,Sea Level PressureIn,VisibilityMPH,Wind Direction,Wind SpeedMPH,Gust SpeedMPH,PrecipitationIn,Events,Conditions,WindDirDegrees,DateUTC
12:15 AM,36.9,32.2,83,29.96,7.0,ESE,6.9,-,N/A,,Clear,110,2012-12-01 06:15:00
12:35 AM,36.7,32.2,84,29.95,7.0,ESE,6.9,-,N/A,,Clear,110,2012-12-01 06:35:00
12:55 AM,37.4,33.1,84,29.94,7.0,SE,8.1,-,N/A,,Clear,130,2012-12-01 06:55:00
1:15 AM,38.5,33.3,81,29.92,7.0,SE,10.4,-,N/A,,Clear,130,2012-12-01 07:15:00
1:35 AM,38.1,32.9,81,29.91,7.0,SE,6.9,-,N/A,,Clear,140,2012-12-01 07:35:00
1:55 AM,37.8,32.9,83,29.91,7.0,SE,8.1,-,N/A,,Clear,140,2012-12-01 07:55:00
2:15 AM,38.7,33.8,83,29.90,7.0,SE,6.9,-,N/A,,Mostly Cloudy,140,2012-12-01 08:15:00
2:55 AM,41.7,35.6,79,29.89,7.0,SSE,4.6,-,N/A,,Overcast,160,2012-12-01 08:55:00
3:15 AM,42.8,36.0,77,29.89,7.0,SSE,9.2,-,N/A,,Overcast,160,2012-12-01 09:15:00
3:35 AM,43.5,36.5,76,29.88,7.0,SSE,9.2,-,N/A,,Overcast,150,2012-12-01 09:35:00
4:15 AM,44.2,37.4,77,29.87,7.0,SSE,10.4,-,N/A,,Overcast,160,2012-12-01 10:15:00
4:35 AM,43.9,37.6,78,29.86,7.0,South,9.2,-,N/A,,Overcast,170,2012-12-01 10:35:00
4:55 AM,43.9,38.8,82,29.86,7.0,South,10.4,-,N/A,,Overcast,170,2012-12-01 10:55:00
5:15 AM,43.7,39.7,86,29.85,5.0,SSE,8.1,-,N/A,,Overcast,160,2012-12-01 11:15:00
5:35 AM,43.5,40.6,90,29.85,3.0,South,6.9,-,N/A,,Overcast,170,2012-12-01 11:35:00
6:15 AM,43.7,41.7,93,29.84,0.5,SSE,8.1,-,N/A,Fog,Fog,150,2012-12-01 12:15:00
6:35 AM,43.9,42.3,94,29.85,0.2,SSE,6.9,-,N/A,Fog,Fog,160,2012-12-01 12:35:00
6:55 AM,44.4,42.8,94,29.84,0.2,SSE,6.9,-,N/A,Fog,Fog,160,2012-12-01 12:55:00
7:15 AM,44.8,43.3,95,29.84,0.2,SSE,9.2,-,N/A,Fog,Fog,160,2012-12-01 13:15:00
7:35 AM,45.0,43.7,95,29.85,0.2,South,9.2,-,N/A,Rain,Light Rain,170,2012-12-01 13:35:00
7:55 AM,45.3,43.9,95,29.84,0.2,SSE,10.4,-,N/A,Rain,Light Rain,160,2012-12-01 13:55:00
8:15 AM,46.2,44.8,95,29.84,0.2,South,8.1,-,N/A,Rain,Light Rain,170,2012-12-01 14:15:00
8:35 AM,46.8,45.5,95,29.84,0.2,South,8.1,-,N/A,Rain,Light Rain,170,2012-12-01 14:35:00
8:55 AM,47.3,46.0,95,29.84,0.2,South,8.1,-,N/A,Rain,Light Rain,180,2012-12-01 14:55:00
9:15 AM,47.7,46.4,95,29.84,0.2,South,8.1,-,N/A,Fog,Fog,190,2012-12-01 15:15:00
9:35 AM,48.2,46.8,95,29.84,0.2,South,9.2,-,N/A,Fog,Fog,190,2012-12-01 15:35:00
9:55 AM,48.4,47.3,96,29.85,0.2,South,9.2,-,N/A,Fog,Fog,190,2012-12-01 15:55:00
10:15 AM,48.7,47.5,95,29.85,0.2,South,8.1,-,N/A,Fog,Fog,180,2012-12-01 16:15:00
10:35 AM,49.1,48.0,96,29.84,0.2,South,8.1,-,N/A,Fog,Fog,170,2012-12-01 16:35:00
10:55 AM,50.0,48.7,95,29.84,0.2,South,8.1,-,N/A,Fog,Fog,190,2012-12-01 16:55:00
11:15 AM,50.2,49.1,96,29.84,0.2,SW,5.8,-,N/A,Fog,Fog,220,2012-12-01 17:15:00
11:35 AM,50.5,49.5,96,29.83,0.2,South,5.8,-,N/A,Fog,Fog,190,2012-12-01 17:35:00
11:55 AM,51.1,50.0,96,29.81,0.5,South,5.8,-,N/A,Fog,Fog,180,2012-12-01 17:55:00
12:15 PM,51.6,50.4,95,29.79,1.0,South,10.4,-,N/A,,Overcast,180,2012-12-01 18:15:00
12:35 PM,52.3,51.3,96,29.79,0.8,South,10.4,-,N/A,,Overcast,180,2012-12-01 18:35:00
12:55 PM,53.1,52.0,96,29.77,1.2,South,10.4,-,N/A,,Overcast,170,2012-12-01 18:55:00
1:15 PM,53.6,52.3,95,29.77,1.8,South,8.1,-,N/A,,Overcast,180,2012-12-01 19:15:00
1:35 PM,53.6,52.5,96,29.77,1.5,SSW,5.8,-,N/A,,Overcast,200,2012-12-01 19:35:00
1:55 PM,54.5,53.1,95,29.76,1.8,South,11.5,-,N/A,,Overcast,190,2012-12-01 19:55:00
2:15 PM,55.0,53.6,95,29.76,2.0,SSW,10.4,-,N/A,,Overcast,200,2012-12-01 20:15:00
2:35 PM,55.4,54.0,95,29.75,3.0,SSW,8.1,-,N/A,,Overcast,200,2012-12-01 20:35:00
2:55 PM,56.3,53.8,91,29.76,4.0,WSW,10.4,-,N/A,,Overcast,240,2012-12-01 20:55:00
3:15 PM,55.9,53.1,90,29.76,3.0,SW,8.1,-,N/A,,Overcast,220,2012-12-01 21:15:00
3:35 PM,56.3,52.7,88,29.77,3.0,SW,9.2,-,N/A,,Overcast,230,2012-12-01 21:35:00
3:55 PM,56.3,52.7,88,29.78,4.0,SW,9.2,-,N/A,,Overcast,220,2012-12-01 21:55:00
4:15 PM,56.7,52.7,87,29.78,5.0,SSW,8.1,-,N/A,,Overcast,200,2012-12-01 22:15:00
4:35 PM,56.5,52.5,87,29.79,5.0,SW,6.9,-,N/A,,Overcast,230,2012-12-01 22:35:00
4:55 PM,56.3,52.2,86,29.79,5.0,SSW,8.1,-,N/A,,Overcast,200,2012-12-01 22:55:00
5:15 PM,55.9,52.0,87,29.80,7.0,SSW,8.1,-,N/A,,Overcast,210,2012-12-01 23:15:00
5:35 PM,54.3,50.7,88,29.80,5.0,SSW,5.8,-,N/A,,Mostly Cloudy,210,2012-12-01 23:35:00
5:55 PM,52.7,50.0,91,29.81,5.0,SSW,6.9,-,N/A,,Scattered Clouds,200,2012-12-01 23:55:00
6:15 PM,52.9,50.2,91,29.80,5.0,SSW,8.1,-,N/A,,Clear,210,2012-12-02 00:15:00
6:35 PM,51.8,49.3,91,29.81,4.0,South,5.8,-,N/A,,Clear,190,2012-12-02 00:35:00
6:55 PM,50.9,48.9,93,29.81,3.0,SSW,8.1,-,N/A,,Clear,200,2012-12-02 00:55:00
7:15 PM,50.7,48.9,94,29.81,3.0,South,6.9,-,N/A,,Clear,190,2012-12-02 01:15:00
7:35 PM,50.5,48.9,94,29.81,2.5,SSW,6.9,-,N/A,,Clear,210,2012-12-02 01:35:00
7:55 PM,50.7,48.9,94,29.82,3.0,SW,8.1,-,N/A,,Clear,230,2012-12-02 01:55:00
8:15 PM,50.9,49.3,94,29.82,3.0,SW,4.6,-,N/A,,Clear,220,2012-12-02 02:15:00
8:35 PM,49.5,47.8,94,29.83,1.0,WSW,6.9,-,N/A,,Mist,240,2012-12-02 02:35:00
8:55 PM,50.4,48.9,95,29.82,3.0,SW,5.8,-,N/A,,Clear,220,2012-12-02 02:55:00
9:15 PM,49.5,47.8,94,29.82,2.5,SW,8.1,-,N/A,,Clear,230,2012-12-02 03:15:00
9:35 PM,49.1,47.5,94,29.83,2.5,WSW,4.6,-,N/A,,Clear,250,2012-12-02 03:35:00
9:55 PM,48.7,47.3,95,29.84,1.5,WSW,4.6,-,N/A,,Mist,250,2012-12-02 03:55:00
10:15 PM,48.4,46.9,95,29.84,1.8,West,6.9,-,N/A,,Mist,260,2012-12-02 04:15:00
10:35 PM,48.6,47.3,95,29.84,2.5,West,5.8,-,N/A,,Clear,280,2012-12-02 04:35:00
10:55 PM,48.2,46.6,94,29.84,2.5,WNW,9.2,-,N/A,,Clear,290,2012-12-02 04:55:00
11:15 PM,47.7,46.4,95,29.85,3.0,WNW,9.2,-,N/A,,Clear,290,2012-12-02 05:15:00
11:35 PM,49.1,47.5,94,29.85,5.0,West,9.2,-,N/A,,Clear,270,2012-12-02 05:35:00
11:55 PM,48.7,46.8,93,29.85,5.0,West,5.8,-,N/A,,Clear,270,2012-12-02 05:55:00